SCP
1 1 2 2 2 2 2 3 2 2 2 2 2 2 2 2 2 2 2 2 2 2 2 2 2 1 1 1 1 1 1 1 1 1 0 0 0 0 0 0 0 0 0
1 2 2 3 3 2 3 3 2 2 2 2 2 2 2 2 2 2 2 2 2 2 2 2 2 1 1 1 1 1 1 1 1 1 1 0 0 0 0 0 0 0 0
2 2 3 3 3 3 3 3 3 2 2 2 2 2 2 2 1 2 2 2 2 2 2 2 2 2 1 1 1 1 1 1 1 1 1 0 0 0 0 0 0 0 0
2 2 3 3 3 3 3 3 3 2 2 2 2 2 2 2 1 2 2 2 2 2 2 2 2 2 2 1 1 1 1 1 1 1 1 0 0 1 1 1 1 1 0
3 3 3 3 3 3 3 3 3 2 2 2 2 2 2 2 2 2 2 2 2 2 2 2 2 2 2 1 1 1 1 1 1 0 0 0 0 1 1 1 1 1 1
3 3 3 4 4 4 4 3 3 2 2 2 2 2 2 2 2 2 2 2 2 2 2 2 2 2 2 2 1 1 1 1 1 0 0 0 0 1 1 1 1 1 1
3 3 4 4 4 4 4 4 3 3 2 2 2 2 2 2 2 2 2 2 2 2 2 2 2 2 2 2 2 2 1 1 0 0 0 0 0 1 1 1 1 1 1
3 3 4 4 4 4 4 4 3 3 2 2 2 2 2 2 2 2 2 2 2 2 2 2 2 2 2 2 2 2 2 1 0 0 0 0 0 1 1 1 2 2 1
3 3 4 4 4 5 5 5 4 3 3 3 2 2 2 3 3 2 2 2 2 2 2 2 2 2 2 2 2 2 1 1 0 0 0 0 0 1 1 1 2 2 2
3 3 3 3 4 4 5 5 4 3 3 3 2 2 3 3 3 2 2 2 2 2 1 2 2 2 2 2 2 2 1 1 0 0 0 0 0 1 1 1 2 2 2
2 3 3 3 3 4 5 5 4 3 3 3 3 3 3 3 3 2 2 2 2 1 1 1 2 2 2 2 1 1 1 0 0 0 0 0 0 1 1 1 2 2 2
2 2 3 3 3 4 5 5 4 4 3 3 3 3 3 3 3 2 1 1 1 1 1 1 1 1 2 1 1 1 1 0 0 0 0 0 1 1 1 1 2 2 2
2 3 3 3 3 4 4 5 4 4 4 3 3 3 3 3 2 1 1 1 1 1 1 1 1 1 1 1 1 1 1 0 0 0 0 0 1 1 1 2 2 2 2
2 3 3 3 3 3 4 4 4 4 4 4 4 3 3 2 1 1 1 1 1 1 1 1 1 1 1 1 1 1 1 1 0 0 0 0 1 1 1 1 2 2 3
2 3 4 4 4 3 4 4 4 4 4 4 4 3 2 1 0 0 1 1 1 1 2 2 2 1 1 1 1 1 1 1 0 0 0 0 1 1 1 1 2 2 3
2 2 4 5 5 4 4 4 4 4 3 4 4 3 1 0 0 0 0 0 1 1 2 2 2 2 2 1 1 1 1 1 0 0 0 0 0 1 1 1 1 2 3
2 2 3 5 6 5 4 4 4 4 3 3 3 2 1 0 0 0 0 0 1 1 2 2 3 3 2 2 1 1 1 0 0 0 0 0 0 0 1 1 1 2 2
3 2 3 5 6 6 5 5 4 4 3 3 3 2 1 0 0 0 0 0 0 1 1 2 3 3 2 2 1 1 1 0 0 0 0 0 0 0 0 0 1 1 2
4 3 3 4 6 6 6 5 5 4 4 3 3 1 1 0 0 0 0 0 0 0 1 2 2 2 2 2 1 1 1 0 0 0 0 0 0 0 0 0 0 1 2
5 4 4 4 5 6 6 5 4 4 3 3 2 1 1 0 0 0 0 0 0 0 0 1 2 2 2 2 1 1 0 0 0 0 0 0 0 0 0 0 0 1 1
5 5 4 4 5 6 6 5 4 4 3 3 2 1 0 0 0 0 0 0 0 0 0 1 1 1 1 1 1 0 0 0 0 0 0 0 0 0 0 0 0 0 0
4 4 4 3 4 5 5 4 4 3 2 2 1 1 0 0 0 0 0 0 0 0 0 0 1 1 1 1 0 0 0 0 0 0 0 0 0 0 0 0 0 0 0
3 3 3 3 3 4 4 3 2 2 1 1 1 0 0 0 0 0 0 0 0 0 0 0 0 0 0 0 0 0 0 0 0 0 0 0 0 0 0 0 0 0 0
1 2 3 3 2 2 2 2 1 1 1 0 0 0 0 0 0 0 0 0 0 0 0 0 0 0 0 0 0 0 0 0 0 0 0 0 0 0 0 0 0 0 0
0 1 2 2 2 2 2 1 1 1 1 0 0 0 0 0 0 0 0 0 0 0 0 0 0 0 0 0 0 0 0 0 0 0 0 0 0 0 0 0 0 0 0
0 0 1 2 2 2 2 1 1 1 1 0 0 0 0 0 0 0 0 0 0 0 0 0 0 0 0 0 0 0 0 0 0 0 0 0 0 0 0 0 0 0 0
Wind_Speed
2 3 6 7 8 8 9 9 9 9 9 9 8 9 9 9 9 9 9 9 9 9 9 9 9 9 9 9 9 9 8 8 8 8 8 8 8 7 7 8 7 5 8
5 4 7 8 8 9 9 9 9 8 8 9 9 8 8 8 8 8 8 8 8 8 8 8 8 8 8 8 8 8 8 8 7 7 7 7 6 6 6 7 6 4 7
6 5 6 8 8 8 8 8 8 8 8 8 8 8 7 7 7 7 7 7 7 7 7 8 7 7 7 7 7 7 7 7 6 6 6 3 3 6 6 6 6 6 5
7 5 5 8 8 8 8 8 7 7 7 7 7 7 7 7 7 7 6 6 6 7 6 6 6 6 6 6 5 5 6 5 5 6 3 2 2 4 4 4 4 4 4
6 5 5 8 8 8 8 7 7 6 6 6 6 6 6 6 6 6 6 5 5 6 6 5 5 5 5 4 4 4 4 5 5 5 2 2 1 3 4 4 4 3 3
6 5 5 8 8 7 7 6 6 6 6 6 6 6 5 5 5 5 4 5 5 5 5 4 4 4 4 4 4 3 4 4 4 3 2 1 1 2 3 3 3 2 2
6 4 5 7 7 7 6 6 6 6 6 5 5 5 5 5 5 5 3 4 4 4 4 3 3 3 3 3 3 3 3 3 3 2 1 1 0 1 2 2 2 1 1
7 5 4 7 7 6 6 5 5 5 5 4 4 4 4 4 4 4 4 3 3 3 3 3 2 2 2 2 2 2 2 2 2 1 1 0 0 0 1 1 1 1 1
6 5 4 3 4 5 5 4 4 4 4 3 3 3 3 3 3 3 3 3 2 2 2 2 1 1 1 1 1 1 1 2 1 0 1 1 1 2 1 2 2 2 2
5 4 3 3 3 2 2 4 3 3 3 3 3 3 3 3 2 2 2 2 1 1 1 1 1 0 1 1 1 1 1 1 0 1 1 2 2 3 3 2 2 3 3
4 3 3 3 2 2 2 2 2 2 2 2 2 3 3 1 1 1 1 1 1 1 1 1 1 1 1 2 2 2 2 0 1 1 1 3 4 4 4 4 3 4 4
3 3 3 3 2 2 1 1 1 1 1 0 1 1 1 1 1 1 1 2 2 1 1 2 2 2 2 1 1 2 0 1 1 2 2 4 5 5 6 5 5 5 5
4 3 3 3 2 2 1 1 1 0 0 0 1 1 1 1 1 1 1 1 1 1 1 1 2 1 1 1 1 1 1 1 1 2 3 5 6 6 7 6 6 7 7
4 3 2 2 2 2 2 1 1 1 0 0 1 1 1 1 1 1 1 1 1 0 1 1 1 1 2 2 2 2 2 1 2 2 3 6 7 7 8 8 7 7 8
4 3 2 2 3 2 2 1 1 1 1 1 1 1 1 1 0 0 0 0 1 1 0 1 1 2 2 2 2 2 2 3 3 2 3 6 8 8 9 8 8 8 8
3 3 2 2 3 2 2 2 1 1 1 1 1 1 1 1 1 1 0 1 1 1 1 1 2 2 2 2 2 3 3 3 3 3 3 4 7 8 9 9 8 8 8
3 3 3 3 2 2 2 2 1 1 1 1 1 1 1 1 1 1 1 1 1 1 1 1 1 1 1 2 2 3 3 3 3 4 3 3 3 5 7 8 9 9 9
3 3 3 2 2 2 2 2 1 1 2 1 1 1 1 1 1 1 1 1 2 1 1 0 1 1 1 2 2 3 3 3 4 4 3 3 2 3 4 7 8 9 10
3 3 3 2 2 2 2 1 1 1 1 1 1 1 1 1 1 1 1 1 1 1 1 1 1 1 1 2 3 3 3 3 3 3 3 3 3 3 3 5 7 9 10
3 3 2 2 2 1 1 1 1 0 1 1 1 1 2 1 1 1 1 1 1 1 1 1 1 1 1 2 3 3 3 4 3 3 3 3 2 3 3 3 3 5 8
2 2 2 2 1 1 1 1 1 1 1 1 1 1 1 1 1 1 1 1 1 2 2 1 1 1 1 1 1 3 3 3 2 2 2 2 2 3 3 3 3 2 3
2 2 2 2 1 1 2 2 1 1 1 1 1 1 2 1 2 1 1 1 2 2 2 2 1 1 1 0 0 1 3 3 2 2 2 2 2 2 3 3 3 3 3
1 2 2 2 2 2 1 1 1 1 1 1 0 1 1 2 2 2 2 1 2 2 2 3 2 2 2 1 1 1 1 2 3 3 2 2 2 2 3 3 3 3 3
2 1 1 2 2 2 2 2 2 1 1 2 1 1 2 2 2 2 2 2 1 2 2 3 2 2 2 2 1 1 2 2 2 3 2 2 3 3 3 3 3 3 3
1 1 1 1 1 2 2 2 3 1 1 1 1 2 2 2 2 2 2 2 2 2 2 3 3 2 2 3 2 1 1 1 2 3 4 3 3 2 3 3 3 3 3
1 0 1 0 1 1 2 2 3 2 2 2 2 2 2 2 2 2 2 2 2 2 3 3 3 3 3 3 2 2 2 2 2 2 4 4 4 3 3 3 3 3 3
Wind_Direction
175 175 129 122 112 106 104 105 103 101 98 95 96 98 98 96 95 95 95 93 92 91 91 88 85 83 79 81 83 88 92 90 86 83 82 84 85 91 93 89 84 78 82
155 150 124 119 113 108 103 100 100 100 100 96 94 98 101 100 99 100 99 95 94 93 91 87 83 82 81 81 82 83 84 87 84 77 73 74 80 88 98 94 93 91 90
133 133 128 118 113 111 105 101 100 99 97 98 97 97 101 102 100 101 101 96 93 92 91 87 85 84 83 82 83 87 86 82 80 75 68 55 70 88 96 97 95 92 93
128 125 124 117 114 111 108 104 101 101 97 96 98 98 98 102 102 99 100 98 94 92 91 90 87 86 86 83 84 88 88 83 76 69 60 49 57 87 92 98 100 97 94
118 118 124 115 115 114 111 107 103 99 98 98 95 97 98 98 99 97 96 97 97 95 93 93 94 94 90 82 82 89 84 78 72 60 56 53 47 88 95 97 98 101 103
116 118 125 117 115 112 112 111 109 102 97 99 98 94 95 96 93 96 96 101 101 99 97 95 97 99 93 85 86 97 92 74 62 57 52 48 54 95 108 109 107 110 117
120 118 124 119 118 114 111 110 110 105 99 97 96 97 94 90 91 85 94 107 110 110 105 97 103 102 96 91 91 101 96 65 61 55 40 21 0 121 130 132 137 147 162
125 118 118 118 116 116 116 113 105 103 103 101 97 97 98 94 91 90 82 96 113 119 113 108 114 110 93 91 91 101 88 64 67 44 9 291 267 156 172 190 190 197 227
120 113 106 113 116 119 118 115 112 105 100 97 96 88 82 86 86 91 85 78 86 112 122 124 125 112 81 59 54 56 63 50 62 357 314 276 257 236 236 235 219 235 245
111 115 113 106 105 113 128 121 115 111 101 88 86 75 64 63 68 71 75 63 68 73 109 151 169 124 356 5 18 19 15 24 23 301 276 262 259 248 249 247 248 250 248
113 123 128 128 124 121 133 121 121 122 106 80 90 73 57 57 69 55 42 33 26 18 348 263 254 318 350 359 2 356 350 316 264 265 251 257 255 254 257 254 257 263 262
158 163 151 149 151 150 149 117 134 125 112 92 126 102 70 50 29 26 16 9 358 350 337 322 316 332 345 335 327 331 299 276 260 256 253 259 257 257 258 256 256 261 264
167 168 169 167 160 158 151 128 121 102 109 81 112 103 87 63 38 31 23 12 351 6 354 338 336 325 305 280 266 254 243 248 242 258 258 262 262 262 262 260 257 260 263
156 168 171 163 154 161 154 149 148 143 159 149 162 121 111 91 45 32 14 352 345 336 333 334 305 296 288 274 255 248 248 245 248 254 256 265 267 268 267 263 261 262 266
153 165 175 165 160 162 156 168 146 171 177 176 176 166 142 137 138 62 319 320 313 305 302 309 291 282 277 269 263 257 254 251 248 252 268 268 267 264 264 265 264 267 268
175 179 177 171 172 162 166 170 176 182 177 173 182 198 167 163 177 197 245 284 286 269 263 265 277 271 269 272 273 270 263 258 251 251 252 266 270 269 264 264 266 268 270
187 183 179 181 166 161 172 176 175 183 169 179 192 200 192 175 197 212 223 263 277 275 275 290 303 291 292 290 282 281 273 266 261 256 254 251 259 269 272 267 269 270 272
175 179 188 180 168 177 173 167 178 179 169 182 190 192 207 197 207 219 226 251 276 273 254 258 284 293 292 290 287 282 279 272 267 262 258 253 249 255 267 272 273 273 274
171 173 176 174 179 186 181 164 160 176 182 189 188 189 207 207 209 214 234 246 266 270 243 267 300 262 272 290 286 282 279 274 265 266 262 253 249 250 248 268 274 274 275
159 155 156 163 175 171 150 120 121 141 209 198 199 200 200 205 212 218 230 247 254 255 252 230 255 286 260 277 295 298 284 274 260 255 259 259 254 254 252 255 259 273 276
136 140 143 153 160 137 142 160 169 215 233 217 218 202 199 208 215 221 235 238 243 238 238 228 230 266 281 291 326 319 308 283 259 249 258 260 266 270 261 255 252 252 273
157 164 153 171 176 178 192 191 184 191 235 226 218 217 215 216 229 231 219 232 237 238 246 232 213 230 272 255 119 334 323 320 315 301 282 258 268 285 284 284 264 257 260
155 195 193 196 194 198 196 150 79 59 8 339 240 236 236 221 231 239 228 232 248 230 230 230 220 218 231 256 193 173 217 265 308 298 296 289 289 296 295 301 290 284 276
219 225 222 204 194 195 172 153 153 185 230 253 245 252 264 240 237 241 230 224 239 245 241 236 235 238 212 233 247 226 221 218 257 298 295 291 297 294 289 294 290 281 281
230 240 249 229 200 187 174 174 170 199 236 273 273 263 267 261 246 246 234 224 231 239 247 245 239 241 228 226 227 231 246 255 232 246 278 287 296 284 283 283 280 280 283
312 323 320 320 236 201 183 184 177 192 217 249 267 254 260 263 265 261 252 236 238 241 240 242 232 229 235 234 233 224 221 227 232 238 265 284 290 291 290 285 272 272 281